Location: Carrières
(48.9495°N, 2.0407°E)
Time: 17:53:02
(UTC+00:00)

SR - Pass Details

Date: 23 April 2024
Orbit: 579 x 860 km, 66.7° (Epoch: 22 May)

Event Time Altitude Azimuth Distance (km) Brightness Sun altitude
Exits shadow 00:41:08 44° 97° (E) 1,049 ? -27.4°
Drops below altitude 10° 00:45:25 10° 46° (NE) 2,235 ? -27.2°
Sets 00:47:46 0° 40° (NE) 3,113 ? -27.1°
